DELTA 1 DEB, 7053

Orbit data source: Space-Track

DELTA 1 DEB, 7053 is space debris in SSO originally from a launch on Tue, 06 Nov 1973 UTC launched from the Air Force Western Test Range (AFWTR). Debris objects in space refer to the collection of defunct objects orbiting the Earth. Examples of debris include non-operational satellites, rocket bodies, and fragments generated from explosions, collisions, or faulty payload assembly.

Loading next visibility...
Identifier
7053, 1973-086AV
Orbit
SSO
Country
Flag of USUS
Related business
Manufacturer
Unknown
Mission
Spacecraft
Bus & Motor
Unknown
Mass
Unknown
Launch date (UTC)
1973-11-06 (52 years ago)
Launch vehicle
Unknown
Launch site
Air Force Western Test Range (AFWTR)
Object type
Payload
Rocket body
Debris
Shape & HBR
Unknown shape, 0.2 m
Radar Cross Section
Small (<0.1 m²)

Expand to show TLE details & history
Last TLE update: 22 hours ago

TLE from 22 hours ago
0 DELTA 1 DEB
1 07053U 73086AV  26034.15131341  .00000014  00000-0  39264-3 0  9995
2 07053 101.7569 111.8636 0048642 199.2983 188.6948 12.48598571377514
Epoch: 2026-02-03T03:37Z
TLE epoch observation values (Epoch: 2026-02-03T03:37:53.478Z)
Latitude
27.3126°
Longitude
-82.08542°
Altitude
1,511.156 km
Speed
7.095 km/s
True Right ascension
07h 02m 53s
True Declination
27° 11' 10"
Sunlit
Object was in full shadow at epoch
Visualization orbit readout
Latitude
Unknown
Longitude
Unknown
Altitude
Unknown
Speed
Unknown
Apparent Right ascension
Unknown
Apparent Declination
Unknown
Sunlit
N/A
Visualization observer readout
Local Sidereal Time
03:13:34
Azimuth
Unknown
Elevation
Unknown
Doppler factor
Unknown
Orbital elements
Apogee altitude
1,506.076 km
Perigee altitude
1,429.747 km
Semi-major axis
7,846.048 km
Eccentricity
0.00486
Inclination
101.7569°
RAAN
111.8636°
Arg. of periapsis
199.2983°
True anomaly
188.61104°
Mean anomaly
188.6948°
Eccentric anomaly
188.65287°
Mean motion
3.12296 °/min
Orbital period
115.28 mins
BSTAR
0.00039264
Loading maneuver chart data...
Computing Atmospheric mass density...
Loading historical data...
Loading historical data...
Loading historical data...
Loading historical data...
Loading historical data...
Loading historical data...
Loading historical data...

Documentation

Showing up to 5 results
|